Weather Roundup
Issued by NWS Chicago, IL

Home | Current Version | Previous Version | Text Only | Print | Product List | Glossary Off
Versions: 1 2 3 4 5 6 7 8 9 10 11 12 13 14 15 16 17 18 19 20 21 22 23 24 25 26 27 28 29 30 31 32 33 34 35 36 37 38 39 40 41 42 43 44 45 46 47 48 49 50

000
NZUS59 KLOT 230904
HRRLOT

CHICAGO AREA WEATHER ROUNDUP
NATIONAL WEATHER SERVICE CHICAGO/ROMEOVILLE IL
400 AM CDT FRI JUN 23 2017

NOTE: "FAIR" INDICATES FEW OR NO CLOUDS BELOW 12,000 FEET WITH NO
SIGNIFICANT WEATHER AND/OR OBSTRUCTIONS TO VISIBILITY.

* THESE STATIONS ARE NOT UNDER NWS QUALITY CONTROL. THEY ALSO MAY NOT
  REPORT WEATHER SUCH AS PRECIPITATION OR FOG.

ILZ005-006-012>014-019>023-231000-
NORTHEAST ILLINOIS

CITY           SKY/WX    TMP DP  RH WIND       PRES   REMARKS
OHARE          CLOUDY    77  71  82 SW13      29.64S
MIDWAY         CLOUDY    77  72  84 SW12      29.64F
AURORA         LGT RAIN  76  73  91 SW12      29.65F
LANSING*       CLOUDY    74  69  84 SW10      29.66S
JOLIET*        CLOUDY    76  74  92 SW9       29.65S
WAUKEGAN       LGT RAIN  68  65  90 NW14G32   29.66R FOG
DUPAGE AIRPORT CLOUDY    75  73  93 SW12      29.64S
WHEELING       CLOUDY    76  73  91 W7        29.65S
MORRIS*        CLOUDY    75  72  89 SW8       29.64F
LEWIS AIRPORT* CLOUDY    74  70  85 SW9       29.65S
NORTHERLY ISL    N/A     75  69  81 SW6         N/A
$$

WIZ051-052-058>065-066-070>072-231000-
SOUTHEAST WISCONSIN

CITY           SKY/WX    TMP DP  RH WIND       PRES   REMARKS
MILWAUKEE      TSTM      65  64  97 E9        29.65F FOG
KENOSHA*       HVY RAIN  66  64  93 E3        29.65R FOG
RACINE*        RAIN      65  64  97 CALM      29.67F FOG
$$

INZ001>003-010>013-019-020-231000-
NORTHWEST INDIANA

CITY           SKY/WX    TMP DP  RH WIND       PRES   REMARKS
GARY*          CLOUDY    76  71  84 SW5       29.66S
MICHIGAN CITY* NOT AVBL
RENSSELAER*    NOT AVBL
VALPARAISO     CLOUDY    74  72  93 SW10      29.68S
$$

LMZ740>746-231000-
SOUTHERN LAKE MICHIGAN

STATION/POSITION TIME  SKY/WX   TEMP WIND        PRES    VSBY
                                AIR  DIR/SP/G
                 (UTC)          (F)  (DEG/KT/KT) (MB)    (MI)
HARRISON CRIB    0840            76  230/ 10/ 11   N/A
BURNHAM HARBOR   0900            75                N/A
CALUMET HARBOR   0830            75  210/  6/ 11 1003.6F
BURNS HARBOR     0840            74  220/ 11/ 17 1004.7F
MICHIGAN CITY    0840            74  200/ 15/ 18   N/A
$$

ABBREVIATIONS USED IN REMARKS
   TC - TEMPERATURE IN CELSIUS
  WCI - WIND CHILL INDEX
   HX - HEAT INDEX
  VSB - VISIBILITY
$$




USA.gov is the U.S. government's official web portal to all federal, state and local government web resources and services.